This is the latest recevied weather packets stored in our database for station/object W0SS-13. If no packets are shown the sender has not sent any weather packets the latest 10 day(s).
| Time | Temp. | Humidity | Pressure | Rain* | Wind** | Luminosity | Snow |
|---|---|---|---|---|---|---|---|
| 1777128243 | 18.33° C | 69% | 1012 hPa | 0 mm | - | 448 W/m² | - |
| 1777127941 | 18.33° C | 69% | 1011.7 hPa | 0 mm | - | 438 W/m² | - |
| 1777127638 | 18.33° C | 69% | 1011.8 hPa | 0 mm | - | 423 W/m² | - |
| 1777127335 | 18.33° C | 70% | 1011.8 hPa | 0 mm | - | 410 W/m² | - |
| 1777127031 | 17.78° C | 70% | 1011.8 hPa | 0 mm | - | 381 W/m² | - |
| 1777126727 | 17.78° C | 70% | 1011.8 hPa | 0 mm | - | 380 W/m² | - |
| 1777126424 | 18.33° C | 69% | 1012.1 hPa | 0 mm | - | 361 W/m² | - |
| 1777126119 | 17.78° C | 71% | 1011.9 hPa | 0 mm | - | 346 W/m² | - |
| 1777125815 | 17.78° C | 69% | 1011.7 hPa | 0 mm | - | 328 W/m² | - |
| 1777125511 | 17.22° C | 70% | 1011.4 hPa | 0 mm | - | 312 W/m² | - |
| 1777125206 | 17.22° C | 69% | 1011.8 hPa | 0 mm | - | 298 W/m² | - |
| 1777124902 | 16.67° C | 71% | 1011.6 hPa | 0 mm | - | 281 W/m² | - |
| 1777124599 | 17.22° C | 72% | 1011.7 hPa | 0 mm | - | 264 W/m² | - |
| 1777124294 | 16.67° C | 71% | 1011.9 hPa | 0 mm | - | 248 W/m² | - |
| 1777123992 | 16.67° C | 71% | 1011.7 hPa | 0 mm | - | 231 W/m² | - |
| 1777123688 | 16.11° C | 72% | 1011.9 hPa | 0 mm | - | 219 W/m² | - |
| 1777123384 | 16.11° C | 70% | 1012 hPa | 0 mm | - | 201 W/m² | - |
| 1777123080 | 16.11° C | 71% | 1011.8 hPa | 0 mm | - | 187 W/m² | - |
| 1777122777 | 15.56° C | 73% | 1011.8 hPa | 0 mm | - | 170 W/m² | - |
| 1777122473 | 15.56° C | 72% | 1011.8 hPa | 0 mm | - | 157 W/m² | - |
| 1777122170 | 15° C | 73% | 1011.9 hPa | 0 mm | - | 141 W/m² | - |
| 1777121865 | 15° C | 72% | 1011.6 hPa | 0 mm | - | 127 W/m² | - |
| 1777121562 | 14.44° C | 74% | 1011.6 hPa | 0 mm | - | 114 W/m² | - |
| 1777121258 | 14.44° C | 74% | 1011.9 hPa | 0 mm | - | 102 W/m² | - |
| 1777120955 | 13.89° C | 75% | 1011.8 hPa | 0 mm | - | 91 W/m² | - |
* Rain latest hour (hover to see other rain measurements)
** Current wind speed in m/s (hover to see current wind gust speed)